Lyon, France

8:53 AM CET on December 11, 2016 (GMT +0100)
Bron

Weather History for LFLY - August, 2013

Change the Weather History Date:

Monday, August 5, 2013

  Actual Average Record
Temperature  
Mean Temperature 80 °F -  
Max Temperature 93 °F 77 °F 102 °F (2003)
Min Temperature 68 °F 59 °F 57 °F (1996)
Cooling Degree Days 16    
Growing Degree Days 30 (Base 50)    
Moisture  
Dew Point 62 °F    
Average Humidity 57    
Maximum Humidity 83    
Minimum Humidity 21    
Precipitation  
Precipitation 0.00 in 0.10 in - ()
Sea Level Pressure  
Sea Level Pressure 30.01 in    
Wind  
Wind Speed 6 mph ()    
Max Wind Speed 23 mph    
Max Gust Speed -    
Visibility 6.2 miles    
Events      
Averages and records for this station are not official NWS values.
T = Trace of Precipitation, MM = Missing Value Source: Averaged Metar Reports

Daily Weather History Graph

Daily Weather History Graph

Search for Another Location

Airport or City:

Trip Planner

Search our weather history database for the weather conditions in past years. The results will help you decide how hot, cold, wet, or windy it might be!

Date:

Astronomy

Aug. 05, 2013 Rise Set
Actual Time 6:28 AM CEST 9:03 PM CEST
Civil Twilight 5:54 AM CEST 9:37 PM CEST
Nautical Twilight 5:11 AM CEST 10:19 PM CEST
Astronomical Twilight 4:22 AM CEST 11:07 PM CEST
Moon 5:09 AM CEST (8/5) 7:52 PM CEST (8/5)
Length of Visible Light 15h 42m
Length of Day
14h 35m
Waning Crescent, 2% of the Moon is Illuminated
Aug 5
Waning Crescent
Aug 6
New
Aug 14
First Quarter
Aug 21
Full
Aug 28
Last Quarter

Hourly Weather History & Observations

Time (CEST) Temp. Heat Index Dew Point Humidity Pressure Visibility Wind Dir Wind Speed Gust Speed Precip Events Conditions
12:00 AM 75.2 °F - 60.8 °F 61% 30.09 in 6.2 mi Variable 3.5 mph - N/A   Unknown
12:30 AM 75.2 °F - 60.8 °F 61% 30.09 in 6.2 mi Variable 3.5 mph - N/A   Unknown
1:00 AM 75.2 °F - 60.8 °F 61% 30.09 in 6.2 mi Variable 2.3 mph - N/A   Unknown
1:30 AM 73.4 °F - 60.8 °F 65% 30.09 in 6.2 mi SSE 2.3 mph - N/A   Unknown
2:00 AM 71.6 °F - 62.6 °F 73% 30.06 in 6.2 mi SSW 3.5 mph - N/A   Unknown
2:30 AM 71.6 °F - 62.6 °F 73% 30.06 in 6.2 mi South 1.2 mph - N/A   Unknown
3:00 AM 69.8 °F - 62.6 °F 78% 30.06 in 6.2 mi Calm Calm - N/A   Unknown
3:30 AM 69.8 °F - 62.6 °F 78% 30.06 in 6.2 mi South 3.5 mph - N/A   Unknown
4:00 AM 69.8 °F - 62.6 °F 78% 30.06 in 6.2 mi SW 3.5 mph - N/A   Unknown
4:30 AM 69.8 °F - 62.6 °F 78% 30.06 in 6.2 mi South 3.5 mph - N/A   Unknown
5:00 AM 69.8 °F - 62.6 °F 78% 30.06 in 6.2 mi South 3.5 mph - N/A   Unknown
5:30 AM 68.0 °F - 60.8 °F 78% 30.04 in 6.2 mi SSW 3.5 mph - N/A   Unknown
6:00 AM 68.0 °F - 60.8 °F 78% 30.04 in - Variable 2.3 mph - N/A   Mist
6:30 AM 68.0 °F - 60.8 °F 78% 30.04 in 6.2 mi SSE 2.3 mph - N/A   Unknown
7:00 AM 68.0 °F - 62.6 °F 83% 30.04 in 6.2 mi South 1.2 mph - N/A   Unknown
7:30 AM 68.0 °F - 62.6 °F 83% 30.04 in 6.2 mi Calm Calm - N/A   Unknown
8:00 AM 69.8 °F - 62.6 °F 78% 30.04 in 6.2 mi Variable 2.3 mph - N/A   Unknown
8:30 AM 71.6 °F - 62.6 °F 73% 30.04 in 6.2 mi Variable 1.2 mph - N/A   Unknown
9:00 AM 75.2 °F - 62.6 °F 65% 30.04 in 6.2 mi Variable 2.3 mph - N/A   Unknown
9:30 AM 75.2 °F - 62.6 °F 65% 30.04 in 6.2 mi Variable 2.3 mph - N/A   Unknown
10:00 AM 78.8 °F - 62.6 °F 57% 30.04 in 6.2 mi SSW 4.6 mph - N/A   Unknown
10:30 AM 80.6 °F 82.3 °F 64.4 °F 58% 30.01 in 6.2 mi South 4.6 mph - N/A   Unknown
11:00 AM 80.6 °F 82.7 °F 66.2 °F 61% 30.01 in 6.2 mi South 5.8 mph - N/A   Unknown
11:30 AM 82.4 °F 84.6 °F 66.2 °F 58% 30.01 in 6.2 mi South 6.9 mph - N/A   Unknown
12:00 PM 86.0 °F 89.4 °F 68.0 °F 55% 30.01 in 6.2 mi South 9.2 mph - N/A   Unknown
12:30 PM 86.0 °F 88.2 °F 66.2 °F 51% 29.98 in 6.2 mi South 13.8 mph - N/A   Unknown
1:00 PM 87.8 °F 88.5 °F 62.6 °F 43% 29.98 in 6.2 mi South 18.4 mph - N/A   Unknown
1:30 PM 87.8 °F 89.4 °F 64.4 °F 46% 29.98 in 6.2 mi South 17.3 mph - N/A   Unknown
2:00 PM 89.6 °F 91.1 °F 64.4 °F 43% 29.98 in 6.2 mi South 18.4 mph - N/A   Unknown
2:30 PM 91.4 °F 91.4 °F 60.8 °F 36% 29.95 in 6.2 mi South 23.0 mph - N/A   Unknown
3:00 PM 91.4 °F 91.4 °F 60.8 °F 36% 29.95 in 6.2 mi South 19.6 mph - N/A   Unknown
3:30 PM 93.2 °F 91.9 °F 57.2 °F 30% 29.95 in 6.2 mi South 21.9 mph - N/A   Unknown
4:00 PM 93.2 °F - 48.2 °F 21% 29.95 in 6.2 mi South 21.9 mph - N/A   Unknown
4:30 PM 93.2 °F - 51.8 °F 24% 29.95 in 6.2 mi South 19.6 mph - N/A   Unknown
5:00 PM 93.2 °F - 48.2 °F 21% 29.92 in 6.2 mi South 19.6 mph - N/A   Unknown
5:30 PM 89.6 °F 88.9 °F 59.0 °F 36% 29.92 in 6.2 mi South 15.0 mph - N/A   Unknown
6:00 PM 89.6 °F 89.5 °F 60.8 °F 38% 29.92 in 6.2 mi South 12.7 mph - N/A   Unknown
6:30 PM 87.8 °F 89.4 °F 64.4 °F 46% 29.95 in 6.2 mi South 15.0 mph - N/A   Unknown
7:00 PM 86.0 °F 88.2 °F 66.2 °F 51% 29.92 in 6.2 mi South 16.1 mph - N/A   Unknown
7:30 PM 86.0 °F 88.2 °F 66.2 °F 51% 29.92 in 6.2 mi South 16.1 mph - N/A   Unknown
8:00 PM 84.2 °F 85.6 °F 64.4 °F 51% 29.95 in 6.2 mi South 17.3 mph - N/A   Unknown
8:30 PM 84.2 °F 85.6 °F 64.4 °F 51% 29.95 in 6.2 mi South 15.0 mph - N/A   Unknown
9:00 PM 84.2 °F 85.6 °F 64.4 °F 51% 29.98 in 6.2 mi South 15.0 mph - N/A   Unknown
9:30 PM 82.4 °F 83.9 °F 64.4 °F 54% 29.98 in 6.2 mi SSW 11.5 mph - N/A   Unknown
10:00 PM 82.4 °F 83.9 °F 64.4 °F 54% 30.01 in 6.2 mi SW 8.1 mph - N/A   Unknown
10:30 PM 82.4 °F 83.4 °F 62.6 °F 51% 30.01 in 6.2 mi SSW 8.1 mph - N/A   Unknown
11:00 PM 80.6 °F 81.8 °F 62.6 °F 54% 30.01 in 6.2 mi SSW 8.1 mph - N/A   Unknown
11:30 PM 80.6 °F 81.8 °F 62.6 °F 54% 30.01 in 6.2 mi WSW 6.9 mph - N/A   Unknown